Time,TemperatureF,DewpointF,PressureIn,WindDirection,WindDirectionDegrees,WindSpeedMPH,WindSpeedGustMPH,Humidity,HourlyPrecipIn,Conditions,Clouds,dailyrainin,SoftwareType,DateUTC
2013-03-29 00:03:00,41.0,33.0,-100.00,NNW,340,1.0,3.0,73,-99.99,,,-99.99,,2013-03-29 04:03:00,
2013-03-29 00:43:00,40.0,32.0,-100.00,WSW,255,1.0,2.0,74,-99.99,,,-99.99,,2013-03-29 04:43:00,
2013-03-29 00:53:00,40.0,32.0,-100.00,WSW,255,1.0,2.0,74,-99.99,,,-99.99,,2013-03-29 04:53:00,
2013-03-29 01:03:00,40.0,32.0,-100.00,SE,135,0.0,2.0,73,-99.99,,,-99.99,,2013-03-29 05:03:00,
2013-03-29 01:13:00,40.0,32.0,-100.00,North,0,1.0,3.0,72,-99.99,,,-99.99,,2013-03-29 05:13:00,
2013-03-29 01:23:00,40.0,32.0,-100.00,WNW,290,0.0,2.0,72,-99.99,,,-99.99,,2013-03-29 05:23:00,
2013-03-29 01:33:00,41.0,32.0,-100.00,SSW,200,0.0,2.0,71,-99.99,,,-99.99,,2013-03-29 05:33:00,
2013-03-29 01:43:00,40.0,32.0,-100.00,East,95,1.0,3.0,72,-99.99,,,-99.99,,2013-03-29 05:43:00,
2013-03-29 01:52:00,40.0,31.0,-100.00,South,190,0.0,2.0,72,-99.99,,,-99.99,,2013-03-29 05:52:00,
2013-03-29 02:03:00,39.0,31.0,-100.00,SSW,195,1.0,2.0,74,-99.99,,,-99.99,,2013-03-29 06:03:00,
2013-03-29 02:13:00,38.0,31.0,-100.00,South,175,0.0,2.0,74,-99.99,,,-99.99,,2013-03-29 06:13:00,
2013-03-29 02:23:00,38.0,31.0,-100.00,ESE,110,0.0,2.0,75,-99.99,,,-99.99,,2013-03-29 06:23:00,
2013-03-29 02:32:00,38.0,31.0,-100.00,East,95,1.0,2.0,76,-99.99,,,-99.99,,2013-03-29 06:32:00,
2013-03-29 02:42:00,38.0,31.0,-100.00,NNE,15,1.0,2.0,77,-99.99,,,-99.99,,2013-03-29 06:42:00,
2013-03-29 02:52:00,37.0,31.0,-100.00,NE,50,1.0,5.0,76,-99.99,,,-99.99,,2013-03-29 06:52:00,
2013-03-29 03:03:00,37.0,31.0,-100.00,SW,220,0.0,2.0,77,-99.99,,,-99.99,,2013-03-29 07:03:00,
2013-03-29 03:12:00,37.0,30.0,-100.00,North,10,1.0,2.0,77,-99.99,,,-99.99,,2013-03-29 07:12:00,
2013-03-29 03:22:00,36.0,30.0,-100.00,WSW,245,1.0,2.0,79,-99.99,,,-99.99,,2013-03-29 07:22:00,
2013-03-29 03:32:00,35.0,30.0,-100.00,WSW,255,1.0,2.0,81,-99.99,,,-99.99,,2013-03-29 07:32:00,
2013-03-29 03:42:00,35.0,30.0,-100.00,WNW,285,1.0,2.0,82,-99.99,,,-99.99,,2013-03-29 07:42:00,
2013-03-29 03:52:00,35.0,30.0,-100.00,NE,45,1.0,2.0,83,-99.99,,,-99.99,,2013-03-29 07:52:00,
2013-03-29 04:02:00,35.0,30.0,-100.00,NW,320,1.0,3.0,84,-99.99,,,-99.99,,2013-03-29 08:02:00,
2013-03-29 04:12:00,35.0,30.0,-100.00,WNW,290,1.0,3.0,83,-99.99,,,-99.99,,2013-03-29 08:12:00,
2013-03-29 04:22:00,35.0,30.0,-100.00,NNE,15,2.0,6.0,82,-99.99,,,-99.99,,2013-03-29 08:22:00,
2013-03-29 04:32:00,36.0,30.0,-100.00,WNW,285,1.0,3.0,78,-99.99,,,-99.99,,2013-03-29 08:32:00,
2013-03-29 04:42:00,35.0,30.0,-100.00,West,260,1.0,2.0,80,-99.99,,,-99.99,,2013-03-29 08:42:00,
2013-03-29 04:52:00,34.0,29.0,-100.00,SSW,210,1.0,2.0,82,-99.99,,,-99.99,,2013-03-29 08:52:00,
2013-03-29 05:02:00,34.0,29.0,-100.00,WNW,285,1.0,2.0,84,-99.99,,,-99.99,,2013-03-29 09:02:00,
2013-03-29 05:10:00,34.0,30.0,-100.00,WNW,290,2.0,5.0,84,-99.99,,,-99.99,,2013-03-29 09:10:00,
2013-03-29 05:13:00,34.0,30.0,-100.00,WNW,295,1.0,3.0,84,-99.99,,,-99.99,,2013-03-29 09:13:00,
2013-03-29 05:22:00,34.0,30.0,-100.00,WNW,295,2.0,3.0,84,-99.99,,,-99.99,,2013-03-29 09:22:00,
2013-03-29 05:33:00,34.0,29.0,-100.00,WSW,250,1.0,3.0,84,-99.99,,,-99.99,,2013-03-29 09:33:00,
2013-03-29 05:43:00,34.0,30.0,-100.00,WNW,285,2.0,3.0,85,-99.99,,,-99.99,,2013-03-29 09:43:00,
2013-03-29 05:52:00,34.0,30.0,-100.00,WNW,290,2.0,5.0,84,-99.99,,,-99.99,,2013-03-29 09:52:00,
2013-03-29 06:03:00,34.0,30.0,-100.00,WNW,290,2.0,5.0,84,-99.99,,,-99.99,,2013-03-29 10:03:00,
2013-03-29 07:12:00,37.0,31.0,-100.00,NE,45,1.0,6.0,79,-99.99,,,-99.99,,2013-03-29 11:12:00,
2013-03-29 07:23:00,37.0,31.0,-100.00,East,90,1.0,6.0,77,-99.99,,,-99.99,,2013-03-29 11:23:00,
2013-03-29 07:33:00,38.0,31.0,-100.00,WNW,285,1.0,5.0,76,-99.99,,,-99.99,,2013-03-29 11:33:00,
2013-03-29 07:43:00,39.0,31.0,-100.00,NNE,15,1.0,7.0,74,-99.99,,,-99.99,,2013-03-29 11:43:00,
2013-03-29 07:52:00,39.0,32.0,-100.00,WSW,255,1.0,5.0,74,-99.99,,,-99.99,,2013-03-29 11:52:00,
2013-03-29 08:03:00,39.0,32.0,-100.00,North,5,2.0,6.0,74,-99.99,,,-99.99,,2013-03-29 12:03:00,
2013-03-29 08:13:00,40.0,32.0,-100.00,West,270,1.0,6.0,73,-99.99,,,-99.99,,2013-03-29 12:13:00,
2013-03-29 08:22:00,40.0,32.0,-100.00,North,0,5.0,7.0,73,-99.99,,,-99.99,,2013-03-29 12:22:00,
2013-03-29 08:32:00,42.0,32.0,-100.00,ENE,60,1.0,7.0,69,-99.99,,,-99.99,,2013-03-29 12:32:00,
2013-03-29 08:42:00,43.0,33.0,-100.00,NNE,20,3.0,9.0,66,-99.99,,,-99.99,,2013-03-29 12:42:00,
2013-03-29 08:52:00,45.0,33.0,-100.00,NE,55,3.0,12.0,64,-99.99,,,-99.99,,2013-03-29 12:52:00,
2013-03-29 09:03:00,45.0,33.0,-100.00,NNE,30,2.0,8.0,62,-99.99,,,-99.99,,2013-03-29 13:03:00,
2013-03-29 09:13:00,46.0,33.0,-100.00,NE,55,6.0,14.0,60,-99.99,,,-99.99,,2013-03-29 13:13:00,
2013-03-29 09:23:00,47.0,33.0,-100.00,ENE,65,8.0,13.0,58,-99.99,,,-99.99,,2013-03-29 13:23:00,
2013-03-29 09:33:00,48.0,33.0,-100.00,NE,55,5.0,12.0,57,-99.99,,,-99.99,,2013-03-29 13:33:00,
2013-03-29 09:43:00,49.0,33.0,-100.00,East,95,7.0,13.0,55,-99.99,,,-99.99,,2013-03-29 13:43:00,
2013-03-29 09:52:00,49.0,33.0,-100.00,East,95,7.0,13.0,55,-99.99,,,-99.99,,2013-03-29 13:52:00,
2013-03-29 10:03:00,50.0,33.0,-100.00,East,100,3.0,16.0,52,-99.99,,,-99.99,,2013-03-29 14:03:00,
2013-03-29 10:12:00,50.0,33.0,-100.00,East,100,5.0,15.0,52,-99.99,,,-99.99,,2013-03-29 14:12:00,
2013-03-29 10:22:00,51.0,34.0,-100.00,ENE,75,5.0,12.0,51,-99.99,,,-99.99,,2013-03-29 14:22:00,
2013-03-29 10:33:00,51.0,34.0,-100.00,East,85,6.0,15.0,51,-99.99,,,-99.99,,2013-03-29 14:33:00,
2013-03-29 10:42:00,51.0,33.0,-100.00,East,85,5.0,12.0,50,-99.99,,,-99.99,,2013-03-29 14:42:00,
2013-03-29 10:52:00,52.0,34.0,-100.00,ENE,70,3.0,13.0,50,-99.99,,,-99.99,,2013-03-29 14:52:00,
2013-03-29 11:03:00,52.0,33.0,-100.00,ENE,75,5.0,13.0,49,-99.99,,,-99.99,,2013-03-29 15:03:00,
2013-03-29 11:12:00,52.0,34.0,-100.00,ESE,115,3.0,10.0,50,-99.99,,,-99.99,,2013-03-29 15:12:00,
2013-03-29 11:22:00,52.0,33.0,-100.00,NNE,25,2.0,13.0,49,-99.99,,,-99.99,,2013-03-29 15:22:00,
2013-03-29 11:30:00,53.0,33.0,-100.00,ENE,70,5.0,14.0,47,-99.99,,,-99.99,,2013-03-29 15:30:00,
2013-03-29 11:33:00,52.0,33.0,-100.00,NE,50,2.0,10.0,49,-99.99,,,-99.99,,2013-03-29 15:33:00,
2013-03-29 11:53:00,52.0,34.0,-100.00,East,90,2.0,13.0,50,-99.99,,,-99.99,,2013-03-29 15:53:00,
2013-03-29 12:03:00,52.0,34.0,-100.00,East,90,2.0,13.0,50,-99.99,,,-99.99,,2013-03-29 16:03:00,
2013-03-29 12:13:00,53.0,33.0,-100.00,ENE,70,5.0,14.0,47,-99.99,,,-99.99,,2013-03-29 16:13:00,
2013-03-29 12:23:00,53.0,33.0,-100.00,ENE,70,5.0,14.0,47,-99.99,,,-99.99,,2013-03-29 16:23:00,
2013-03-29 12:43:00,54.0,32.0,-100.00,NE,55,6.0,13.0,43,-99.99,,,-99.99,,2013-03-29 16:43:00,
2013-03-29 12:53:00,54.0,32.0,-100.00,NE,55,6.0,13.0,43,-99.99,,,-99.99,,2013-03-29 16:53:00,
2013-03-29 13:04:00,54.0,31.0,-100.00,ENE,65,3.0,13.0,41,-99.99,,,-99.99,,2013-03-29 17:04:00,
2013-03-29 13:12:00,55.0,31.0,-100.00,NE,55,7.0,14.0,40,-99.99,,,-99.99,,2013-03-29 17:12:00,
2013-03-29 13:23:00,55.0,31.0,-100.00,SE,130,5.0,9.0,40,-99.99,,,-99.99,,2013-03-29 17:23:00,
2013-03-29 13:33:00,55.0,31.0,-100.00,SE,130,5.0,9.0,40,-99.99,,,-99.99,,2013-03-29 17:33:00,
2013-03-29 13:43:00,56.0,31.0,-100.00,North,350,5.0,9.0,39,-99.99,,,-99.99,,2013-03-29 17:43:00,
2013-03-29 13:53:00,56.0,31.0,-100.00,NNE,15,5.0,9.0,38,-99.99,,,-99.99,,2013-03-29 17:53:00,
2013-03-29 14:02:00,57.0,32.0,-100.00,East,100,2.0,7.0,39,-99.99,,,-99.99,,2013-03-29 18:02:00,
2013-03-29 14:13:00,58.0,31.0,-100.00,South,190,3.0,7.0,36,-99.99,,,-99.99,,2013-03-29 18:13:00,
2013-03-29 14:23:00,55.0,31.0,-100.00,NW,315,2.0,7.0,40,-99.99,,,-99.99,,2013-03-29 18:23:00,
2013-03-29 14:33:00,58.0,31.0,-100.00,SE,125,2.0,6.0,36,-99.99,,,-99.99,,2013-03-29 18:33:00,
2013-03-29 14:42:00,56.0,30.0,-100.00,NE,45,3.0,12.0,36,-99.99,,,-99.99,,2013-03-29 18:42:00,
2013-03-29 14:52:00,56.0,30.0,-100.00,ENE,70,3.0,12.0,37,-99.99,,,-99.99,,2013-03-29 18:52:00,
2013-03-29 15:12:00,58.0,33.0,-100.00,SE,145,2.0,9.0,39,-99.99,,,-99.99,,2013-03-29 19:12:00,
2013-03-29 15:23:00,57.0,29.0,-100.00,North,5,3.0,8.0,35,-99.99,,,-99.99,,2013-03-29 19:23:00,
2013-03-29 15:33:00,57.0,30.0,-100.00,SSE,160,5.0,8.0,36,-99.99,,,-99.99,,2013-03-29 19:33:00,
2013-03-29 15:43:00,57.0,29.0,-100.00,ESE,105,2.0,7.0,35,-99.99,,,-99.99,,2013-03-29 19:43:00,
2013-03-29 15:52:00,59.0,28.0,-100.00,ENE,75,2.0,7.0,31,-99.99,,,-99.99,,2013-03-29 19:52:00,
2013-03-29 16:03:00,58.0,29.0,-100.00,East,95,2.0,7.0,34,-99.99,,,-99.99,,2013-03-29 20:03:00,
2013-03-29 16:12:00,60.0,26.0,-100.00,ENE,70,10.0,17.0,28,-99.99,,,-99.99,,2013-03-29 20:12:00,
2013-03-29 16:23:00,58.0,26.0,-100.00,ENE,60,3.0,15.0,29,-99.99,,,-99.99,,2013-03-29 20:23:00,
2013-03-29 16:33:00,57.0,26.0,-100.00,North,5,3.0,12.0,30,-99.99,,,-99.99,,2013-03-29 20:33:00,
2013-03-29 16:42:00,57.0,26.0,-100.00,NNE,15,3.0,7.0,30,-99.99,,,-99.99,,2013-03-29 20:42:00,
2013-03-29 16:52:00,57.0,26.0,-100.00,NNE,15,3.0,7.0,30,-99.99,,,-99.99,,2013-03-29 20:52:00,
2013-03-29 17:00:00,54.0,29.0,-100.00,East,90,3.0,12.0,37,-99.99,,,-99.99,,2013-03-29 21:00:00,
2013-03-29 17:02:00,56.0,26.0,-100.00,NE,45,5.0,10.0,31,-99.99,,,-99.99,,2013-03-29 21:02:00,
2013-03-29 17:12:00,56.0,26.0,-100.00,ENE,75,6.0,13.0,32,-99.99,,,-99.99,,2013-03-29 21:12:00,
2013-03-29 17:22:00,55.0,27.0,-100.00,ENE,65,3.0,13.0,34,-99.99,,,-99.99,,2013-03-29 21:22:00,
2013-03-29 17:43:00,54.0,29.0,-100.00,East,90,3.0,12.0,37,-99.99,,,-99.99,,2013-03-29 21:43:00,
2013-03-29 17:53:00,54.0,29.0,-100.00,East,90,3.0,12.0,37,-99.99,,,-99.99,,2013-03-29 21:53:00,
2013-03-29 19:03:00,53.0,30.0,-100.00,ENE,60,5.0,14.0,40,-99.99,,,-99.99,,2013-03-29 23:03:00,
2013-03-29 19:12:00,53.0,30.0,-100.00,ESE,105,2.0,10.0,41,-99.99,,,-99.99,,2013-03-29 23:12:00,
2013-03-29 19:22:00,53.0,30.0,-100.00,East,100,2.0,12.0,42,-99.99,,,-99.99,,2013-03-29 23:22:00,
2013-03-29 19:32:00,52.0,30.0,-100.00,East,90,2.0,7.0,42,-99.99,,,-99.99,,2013-03-29 23:32:00,
2013-03-29 19:42:00,51.0,31.0,-100.00,ESE,120,2.0,6.0,45,-99.99,,,-99.99,,2013-03-29 23:42:00,
2013-03-29 19:52:00,50.0,31.0,-100.00,SE,145,1.0,3.0,47,-99.99,,,-99.99,,2013-03-29 23:52:00,
2013-03-29 20:03:00,49.0,31.0,-100.00,East,100,0.0,3.0,49,-99.99,,,-99.99,,2013-03-30 00:03:00,
2013-03-29 20:12:00,48.0,31.0,-100.00,NW,320,0.0,2.0,51,-99.99,,,-99.99,,2013-03-30 00:12:00,
2013-03-29 20:22:00,49.0,31.0,-100.00,ENE,65,1.0,3.0,51,-99.99,,,-99.99,,2013-03-30 00:22:00,
2013-03-29 20:43:00,49.0,31.0,-100.00,ENE,75,3.0,7.0,50,-99.99,,,-99.99,,2013-03-30 00:43:00,
2013-03-29 20:52:00,49.0,31.0,-100.00,ENE,75,3.0,7.0,50,-99.99,,,-99.99,,2013-03-30 00:52:00,
2013-03-29 21:13:00,49.0,29.0,-100.00,East,95,1.0,9.0,47,-99.99,,,-99.99,,2013-03-30 01:13:00,
2013-03-29 21:23:00,49.0,29.0,-100.00,SSE,150,0.0,8.0,47,-99.99,,,-99.99,,2013-03-30 01:23:00,
2013-03-29 21:33:00,48.0,29.0,-100.00,NNE,30,1.0,7.0,47,-99.99,,,-99.99,,2013-03-30 01:33:00,
2013-03-29 21:43:00,48.0,30.0,-100.00,SSE,150,1.0,8.0,48,-99.99,,,-99.99,,2013-03-30 01:43:00,
2013-03-29 21:52:00,48.0,29.0,-100.00,ESE,105,1.0,8.0,48,-99.99,,,-99.99,,2013-03-30 01:52:00,
2013-03-29 22:03:00,48.0,29.0,-100.00,East,95,2.0,7.0,49,-99.99,,,-99.99,,2013-03-30 02:03:00,
2013-03-29 22:13:00,48.0,29.0,-100.00,East,90,3.0,8.0,49,-99.99,,,-99.99,,2013-03-30 02:13:00,
2013-03-29 22:22:00,47.0,30.0,-100.00,East,85,2.0,7.0,50,-99.99,,,-99.99,,2013-03-30 02:22:00,
2013-03-29 22:33:00,47.0,30.0,-100.00,East,85,1.0,5.0,51,-99.99,,,-99.99,,2013-03-30 02:33:00,
2013-03-29 22:43:00,46.0,29.0,-100.00,ENE,70,2.0,8.0,51,-99.99,,,-99.99,,2013-03-30 02:43:00,
2013-03-29 22:52:00,46.0,30.0,-100.00,NE,55,2.0,6.0,53,-99.99,,,-99.99,,2013-03-30 02:52:00,
2013-03-29 23:03:00,46.0,30.0,-100.00,ENE,65,2.0,7.0,52,-99.99,,,-99.99,,2013-03-30 03:03:00,
2013-03-29 23:12:00,46.0,30.0,-100.00,ENE,60,2.0,6.0,54,-99.99,,,-99.99,,2013-03-30 03:12:00,
2013-03-29 23:22:00,45.0,30.0,-100.00,NE,40,2.0,6.0,54,-99.99,,,-99.99,,2013-03-30 03:22:00,
2013-03-29 23:33:00,45.0,30.0,-100.00,North,355,1.0,3.0,56,-99.99,,,-99.99,,2013-03-30 03:33:00,
2013-03-29 23:43:00,44.0,30.0,-100.00,NW,310,0.0,1.0,57,-99.99,,,-99.99,,2013-03-30 03:43:00,